GW1010 Weather Reports


Display with metric or nautical units.
time (UTC)temp
F
wind
direction
speed
MPH
gust
MPH
rain 1hr
in
rain 24hr
in
rain mn
in
humidity
%
barometer
mb
20260504050531 49 0 0.0 0.0 0.00 0.00 0.00 88 1016.4
20260504045527 50 0 0.0 0.0 0.00 0.00 0.00 87 1016.2
20260504045026 50 0 0.0 0.0 0.00 0.00 0.00 87 1016.2
20260504044539 51 0 0.0 0.0 0.00 0.00 0.00 87 1016.1
20260504044028 51 0 0.0 1.0 0.00 0.00 0.00 86 1016.0
20260504043527 51 0 0.0 1.0 0.00 0.00 0.00 86 1016.0
20260504043045 51 0 0.0 1.0 0.00 0.00 0.00 86 1015.9
20260504042529 51 0 0.0 1.0 0.00 0.00 0.00 85 1015.8
20260504042029 52 0 0.0 1.0 0.00 0.00 0.00 85 1015.7
20260504041545 52 0 0.0 0.0 0.00 0.00 0.00 84 1015.6
20260504041027 52 0 0.0 1.0 0.00 0.00 0.00 84 1015.6
20260504040527 52 0 0.0 1.0 0.00 0.00 0.00 83 1015.6
20260504040104 52 0 0.0 1.0 0.00 0.00 0.00 83 1015.5
20260504035527 53 0 0.0 1.0 0.00 0.00 0.00 82 1015.4
20260504035027 53 0 0.0 1.0 0.00 0.00 0.00 82 1015.4
20260504034540 53 0 0.0 1.0 0.00 0.00 0.00 81 1015.3
20260504034027 53 224 0.0 5.0 0.00 0.00 0.00 81 1015.3
20260504033528 53 0 0.0 5.0 0.00 0.00 0.00 80 1015.3
20260504033036 54 252 0.0 5.0 0.00 0.00 0.00 79 1015.1
20260504032532 54 0 1.0 3.0 0.00 0.00 0.00 78 1015.0
20260504032029 54 205 1.0 2.0 0.00 0.00 0.00 77 1015.0
20260504031543 54 120 0.0 4.0 0.00 0.00 0.00 76 1015.1
20260504031027 55 145 0.0 4.0 0.00 0.00 0.00 75 1015.1
20260504030531 55 210 0.0 3.0 0.00 0.00 0.00 74 1015.0
20260504030044 55 0 0.0 4.0 0.00 0.00 0.00 74 1014.9
20260504025528 55 262 1.0 4.0 0.00 0.00 0.00 74 1014.8
20260504025027 56 0 0.0 2.0 0.00 0.00 0.00 73 1014.7
20260504024538 56 0 0.0 2.0 0.00 0.00 0.00 73 1014.6
20260504024030 56 233 0.0 2.0 0.00 0.00 0.00 72 1014.8
20260504023527 57 240 0.0 3.0 0.00 0.00 0.00 72 1014.9
20260504023040 57 249 0.0 3.0 0.00 0.00 0.00 71 1014.8
20260504022527 57 252 0.0 4.0 0.00 0.00 0.00 71 1014.8
20260504022026 57 124 0.0 4.0 0.00 0.00 0.00 70 1014.7
20260504021536 57 0 1.0 4.0 0.00 0.00 0.00 70 1014.7
20260504021027 57 0 1.0 4.0 0.00 0.00 0.00 69 1014.7
20260504020528 58 325 1.0 5.0 0.00 0.00 0.00 69 1014.6
20260504020045 58 224 0.0 5.0 0.00 0.00 0.00 69 1014.6
20260504015528 58 155 0.0 4.0 0.00 0.00 0.00 68 1014.6
20260504015028 58 162 1.0 6.0 0.00 0.00 0.00 67 1014.5
20260504014553 59 0 0.0 6.0 0.00 0.00 0.00 68 1014.4
20260504014029 59 174 1.0 5.0 0.00 0.00 0.00 67 1014.4
20260504013527 59 193 1.0 5.0 0.00 0.00 0.00 66 1014.5
20260504013042 59 122 1.0 5.0 0.00 0.00 0.00 66 1014.4
20260504012529 60 0 1.0 3.0 0.00 0.00 0.00 64 1014.4
20260504012027 60 266 1.0 4.0 0.00 0.00 0.00 63 1014.5
20260504011538 60 0 1.0 4.0 0.00 0.00 0.00 62 1014.5
20260504011026 61 211 1.0 4.0 0.00 0.00 0.00 61 1014.4
20260504010528 61 53 1.0 4.0 0.00 0.00 0.00 60 1014.5
20260504010036 62 238 1.0 4.0 0.00 0.00 0.00 59 1014.4
20260504005527 63 0 1.0 4.0 0.00 0.00 0.00 58 1014.2
20260504005027 64 226 0.0 5.0 0.00 0.00 0.00 58 1014.2
20260504004543 63 0 1.0 7.0 0.00 0.00 0.00 59 1014.2
20260504004027 62 186 2.0 7.0 0.00 0.00 0.00 60 1014.1
20260504003532 62 101 2.0 7.0 0.00 0.00 0.00 59 1014.2
20260504003052 63 99 1.0 7.0 0.00 0.00 0.00 57 1014.1
20260504002528 63 49 1.0 7.0 0.00 0.00 0.00 58 1014.2
20260504002027 64 226 1.0 7.0 0.00 0.00 0.00 58 1014.1
20260504001555 63 231 2.0 7.0 0.00 0.00 0.00 58 1014.0
20260504001028 64 231 1.0 6.0 0.00 0.00 0.00 57 1014.0
20260504000527 64 63 2.0 6.0 0.00 0.00 0.00 57 1014.0
20260504000042 64 160 1.0 6.0 0.00 0.00 0.00 55 1013.9
20260503235528 65 249 2.0 7.0 0.00 0.00 0.00 53 1013.9
20260503235028 65 197 2.0 13.0 0.00 0.00 0.00 54 1013.9
20260503234536 65 235 2.0 13.0 0.00 0.00 0.00 53 1013.8
20260503234028 66 148 3.0 13.0 0.00 0.00 0.00 51 1013.8
20260503233528 66 134 1.0 8.0 0.00 0.00 0.00 51 1013.9
20260503233045 66 217 2.0 8.0 0.00 0.00 0.00 51 1013.9
20260503232530 66 0 1.0 6.0 0.00 0.00 0.00 50 1013.7
20260503232028 66 152 2.0 6.0 0.00 0.00 0.00 51 1013.8
20260503231548 66 288 2.0 8.0 0.00 0.00 0.00 51 1013.7
20260503231028 66 207 2.0 9.0 0.00 0.00 0.00 50 1013.8
20260503230527 66 311 3.0 9.0 0.00 0.00 0.00 49 1013.7
20260503230043 66 232 2.0 10.0 0.00 0.00 0.00 49 1013.8
20260503225528 66 105 2.0 10.0 0.00 0.00 0.00 48 1013.7
20260503225026 67 208 3.0 9.0 0.00 0.00 0.00 47 1013.7
20260503224541 67 219 1.0 12.0 0.00 0.00 0.00 49 1013.8
20260503224026 67 249 3.0 12.0 0.00 0.00 0.00 48 1013.8
20260503223531 67 256 2.0 8.0 0.00 0.00 0.00 48 1013.6
20260503223041 68 228 2.0 5.0 0.00 0.00 0.00 47 1013.5
20260503222528 68 126 2.0 5.0 0.00 0.00 0.00 47 1013.7
20260503222025 67 219 2.0 8.0 0.00 0.00 0.00 48 1013.6
20260503221552 68 271 2.0 8.0 0.00 0.00 0.00 47 1013.8
20260503221028 68 127 2.0 9.0 0.00 0.00 0.00 48 1013.8
20260503220531 67 170 3.0 9.0 0.00 0.00 0.00 49 1013.8
20260503220044 67 105 1.0 6.0 0.00 0.00 0.00 50 1013.8
20260503215528 68 341 2.0 7.0 0.00 0.00 0.00 48 1013.9
20260503215027 67 309 1.0 7.0 0.00 0.00 0.00 50 1014.0
20260503214541 67 153 2.0 8.0 0.00 0.00 0.00 50 1014.1
20260503214027 66 166 1.0 9.0 0.00 0.00 0.00 52 1014.0
20260503213528 67 286 3.0 9.0 0.00 0.00 0.00 50 1014.1
20260503213045 67 190 1.0 8.0 0.00 0.00 0.00 51 1014.0
20260503212526 67 245 3.0 8.0 0.00 0.00 0.00 51 1014.0
20260503212028 67 236 2.0 7.0 0.00 0.00 0.00 51 1014.0
20260503211539 67 276 1.0 7.0 0.00 0.00 0.00 51 1014.0
20260503211029 67 207 3.0 7.0 0.00 0.00 0.00 50 1014.1
20260503210533 68 246 2.0 7.0 0.00 0.00 0.00 51 1014.0
20260503210039 67 234 1.0 6.0 0.00 0.00 0.00 52 1014.0
20260503205528 67 276 2.0 7.0 0.00 0.00 0.00 50 1014.1
20260503205028 68 103 3.0 7.0 0.00 0.00 0.00 48 1014.1
20260503204544 68 99 1.0 6.0 0.00 0.00 0.00 51 1014.2
20260503204031 67 141 1.0 7.0 0.00 0.00 0.00 51 1014.2
20260503203530 67 250 2.0 7.0 0.00 0.00 0.00 52 1014.2
20260503203043 66 351 2.0 5.0 0.00 0.00 0.00 51 1014.3
20260503202529 67 86 2.0 5.0 0.00 0.00 0.00 48 1014.3
20260503202027 67 239 0.0 7.0 0.00 0.00 0.00 50 1014.4
20260503201541 67 0 1.0 7.0 0.00 0.00 0.00 50 1014.3
20260503201030 67 226 2.0 6.0 0.00 0.00 0.00 50 1014.3
20260503200528 68 0 2.0 6.0 0.00 0.00 0.00 50 1014.2
20260503200041 68 131 1.0 6.0 0.00 0.00 0.00 50 1014.3
20260503195529 68 273 1.0 6.0 0.00 0.00 0.00 51 1014.4
20260503195032 67 323 2.0 7.0 0.00 0.00 0.00 51 1014.6
20260503194544 67 96 1.0 7.0 0.00 0.00 0.00 52 1014.7
20260503194028 67 133 3.0 7.0 0.00 0.00 0.00 50 1014.8
20260503193530 67 134 2.0 7.0 0.00 0.00 0.00 50 1014.8
20260503193047 67 231 0.0 7.0 0.00 0.00 0.00 51 1014.9
20260503192527 67 68 2.0 8.0 0.00 0.00 0.00 51 1014.9
20260503192027 66 41 1.0 8.0 0.00 0.00 0.00 53 1014.9
20260503191541 66 153 2.0 6.0 0.00 0.00 0.00 54 1014.9
20260503191031 65 132 2.0 5.0 0.00 0.00 0.00 53 1015.0
20260503190528 64 0 0.0 3.0 0.00 0.00 0.00 55 1015.1
20260503190045 64 233 1.0 3.0 0.00 0.00 0.00 56 1015.1
20260503185527 64 259 1.0 5.0 0.00 0.00 0.00 56 1015.1
20260503185027 65 0 2.0 6.0 0.00 0.00 0.00 56 1015.1
20260503184542 65 0 1.0 6.0 0.00 0.00 0.00 55 1015.1
20260503184028 65 110 1.0 5.0 0.00 0.00 0.00 56 1015.2
20260503183526 64 205 1.0 4.0 0.00 0.00 0.00 59 1015.2
20260503183105 64 281 1.0 4.0 0.00 0.00 0.00 59 1015.2
20260503182528 64 0 1.0 4.0 0.00 0.00 0.00 59 1015.2
20260503182028 63 117 1.0 4.0 0.00 0.00 0.00 59 1015.2
20260503181607 63 136 1.0 4.0 0.00 0.00 0.00 62 1015.2
20260503181028 62 77 2.0 4.0 0.00 0.00 0.00 63 1015.3
20260503180528 61 184 1.0 5.0 0.00 0.00 0.00 64 1015.3
20260503180043 61 0 1.0 5.0 0.00 0.00 0.00 64 1015.3
20260503175527 60 144 1.0 4.0 0.00 0.00 0.00 65 1015.2
20260503175028 60 124 0.0 5.0 0.00 0.00 0.00 68 1015.3
20260503174543 59 135 2.0 5.0 0.00 0.00 0.00 68 1015.3
20260503174028 59 117 0.0 4.0 0.00 0.00 0.00 69 1015.4
20260503173527 59 146 1.0 5.0 0.00 0.00 0.00 69 1015.3
20260503173036 59 236 1.0 5.0 0.00 0.00 0.00 69 1015.3
20260503172531 59 245 1.0 5.0 0.00 0.00 0.00 69 1015.3
20260503172031 59 121 1.0 6.0 0.00 0.00 0.00 70 1015.2
20260503171537 59 267 2.0 6.0 0.00 0.00 0.00 71 1015.2
20260503171028 58 153 0.0 4.0 0.00 0.00 0.00 73 1015.2
20260503170529 58 106 1.0 7.0 0.00 0.00 0.00 74 1015.2
20260503150527 55 0 0.0 3.0 0.00 0.00 0.00 81 1014.3
20260503131033 47 0 0.0 0.0 0.00 0.00 0.00 93 1013.4
20260503130527 47 0 0.0 0.0 0.00 0.00 0.00 93 1013.3
20260503110527 48 0 0.0 0.0 0.00 0.00 0.00 89 1013.0
20260503081543 54 0 0.0 2.0 0.00 0.00 0.00 82 1013.5
20260503081028 54 0 0.0 2.0 0.00 0.00 0.00 83 1013.6
20260503080528 54 0 0.0 3.0 0.00 0.00 0.00 83 1013.6
20260503072527 54 0 0.0 1.0 0.00 0.00 0.00 84 1013.3
20260503072028 54 0 0.0 1.0 0.00 0.00 0.00 84 1013.3
20260503071538 54 0 0.0 2.0 0.00 0.00 0.00 84 1013.2
20260503071027 54 0 0.0 2.0 0.00 0.00 0.00 84 1013.2
20260503070528 54 255 0.0 3.0 0.00 0.00 0.00 84 1013.2